TimeCST,TemperatureF,Dew PointF,Humidity,Sea Level PressureIn,VisibilityMPH,Wind Direction,Wind SpeedMPH,Gust SpeedMPH,PrecipitationIn,Events,Conditions,WindDirDegrees,DateUTC
12:08 AM,26.6,21.2,80,30.18,7.0,North,15.0,24.2,0.00,Snow,Light Snow,350,2014-03-03 06:08:00
12:53 AM,25.0,21.0,85,30.22,5.0,North,16.1,23.0,0.00,Snow,Light Snow,350,2014-03-03 06:53:00
1:08 AM,24.8,21.2,86,30.22,3.0,NNW,18.4,23.0,0.00,Snow,Light Snow,340,2014-03-03 07:08:00
1:53 AM,23.0,19.9,88,30.24,5.0,NNW,17.3,24.2,0.00,Snow,Light Snow,340,2014-03-03 07:53:00
2:53 AM,21.9,18.0,85,30.28,4.0,North,18.4,27.6,0.00,Snow,Light Snow,350,2014-03-03 08:53:00
3:53 AM,19.9,16.0,85,30.33,4.0,NNW,19.6,25.3,0.00,Snow,Light Snow,340,2014-03-03 09:53:00
4:00 AM,19.4,15.8,86,30.32,2.5,NNW,15.0,25.3,0.00,Snow,Light Snow,340,2014-03-03 10:00:00
4:53 AM,18.0,12.0,78,30.35,4.0,NNW,20.7,27.6,0.00,Snow,Light Snow,340,2014-03-03 10:53:00
5:40 AM,17.6,12.2,79,30.35,7.0,NNW,17.3,-,0.00,Snow,Light Snow,340,2014-03-03 11:40:00
5:53 AM,18.0,12.0,78,30.38,7.0,NNW,12.7,-,0.00,Snow,Light Snow,340,2014-03-03 11:53:00
6:20 AM,17.6,10.4,73,30.37,10.0,North,16.1,-,0.00,,Overcast,360,2014-03-03 12:20:00
6:44 AM,17.6,10.4,73,30.39,10.0,North,16.1,-,0.00,,Overcast,350,2014-03-03 12:44:00
6:53 AM,17.1,10.0,74,30.42,10.0,North,15.0,-,0.00,,Overcast,350,2014-03-03 12:53:00
7:53 AM,17.1,10.9,77,30.44,10.0,North,10.4,-,N/A,,Overcast,10,2014-03-03 13:53:00
8:53 AM,18.0,10.9,74,30.45,10.0,North,12.7,-,0.00,,Mostly Cloudy,10,2014-03-03 14:53:00
9:15 AM,19.4,12.2,74,30.44,10.0,North,11.5,-,N/A,,Mostly Cloudy,350,2014-03-03 15:15:00
9:53 AM,19.0,12.9,77,30.46,10.0,NNW,12.7,-,N/A,,Overcast,340,2014-03-03 15:53:00
10:53 AM,21.0,14.0,74,30.46,7.0,North,9.2,-,0.00,Snow,Light Snow,10,2014-03-03 16:53:00
11:53 AM,21.0,15.1,78,30.47,7.0,NNW,9.2,-,0.00,Snow,Light Snow,340,2014-03-03 17:53:00
12:53 PM,23.0,16.0,74,30.45,10.0,North,11.5,-,0.00,,Overcast,350,2014-03-03 18:53:00
1:53 PM,24.1,17.1,75,30.42,7.0,NNW,15.0,-,N/A,,Overcast,340,2014-03-03 19:53:00
2:53 PM,24.1,17.1,75,30.42,10.0,North,8.1,-,N/A,,Overcast,10,2014-03-03 20:53:00
3:53 PM,25.0,17.1,72,30.41,10.0,North,6.9,-,N/A,,Overcast,10,2014-03-03 21:53:00
4:53 PM,25.0,18.0,75,30.42,10.0,North,8.1,-,N/A,,Overcast,10,2014-03-03 22:53:00
5:39 PM,24.8,17.6,74,30.39,10.0,NNE,8.1,-,N/A,,Overcast,30,2014-03-03 23:39:00
5:53 PM,25.0,17.1,72,30.40,10.0,NNE,6.9,-,N/A,,Mostly Cloudy,30,2014-03-03 23:53:00
6:53 PM,24.1,16.0,71,30.42,10.0,NNE,3.5,-,N/A,,Mostly Cloudy,30,2014-03-04 00:53:00
7:53 PM,23.0,17.1,78,30.40,10.0,ENE,5.8,-,N/A,,Mostly Cloudy,70,2014-03-04 01:53:00
8:53 PM,24.1,18.0,77,30.42,10.0,Calm,Calm,-,N/A,,Mostly Cloudy,0,2014-03-04 02:53:00
9:53 PM,23.0,18.0,81,30.41,10.0,North,3.5,-,N/A,,Mostly Cloudy,360,2014-03-04 03:53:00
10:53 PM,21.9,18.0,85,30.40,10.0,North,3.5,-,N/A,,Mostly Cloudy,360,2014-03-04 04:53:00
11:53 PM,23.0,18.0,81,30.37,10.0,NNE,6.9,-,N/A,,Mostly Cloudy,30,2014-03-04 05:53:00